Starlink 33883

operational
NORAD ID: 63781 Int'l Des: 2025-091 Owner: SPXS Country: US Constellation: starlink
LEOCIRCULAR

Starlink 33883について

説明を読み込み中...

リアルタイム位置

3D地球を読み込み中...

次回通過

高度履歴

Altitude vs Time

uPlot chart will show altitude changes over time

軌道要素

1 63781U 25091G 25352.17772508 .00026721 00000-0 97646-3 0 9999
2 63781 43.0024 153.0712 0001952 267.2270 92.8359 15.27598966 36432
Epoch: Dec 18, 2025 • Age: 16 hours

現在のステータス

高度 482.5 km
速度 7.63 km/s
衛星直下点 15.64°N, 138.15°E
打ち上げ日 May 2, 2025
運用期間 0.6 years
タイプ internet

技術仕様

分類 Payload
質量 575.00 kg
乾燥質量 530.00 kg
総質量 575.00 kg
長さ 0.30 m
直径 4.10 m
スパン 29.00 m
形状 Box + pan
製造者 SPXS
バスタイプ Starlink V2MO
フェーズステータス In Orbit
所有者/国 SPXS/US

大規模コンステレーション

Loading constellations...